Skip Page Navigation
NASA JPL Caltech
NASA Logo - Jet Propulsion Laboratory + View the NASA Portal
+ Center for Near-Earth Object Studies
JPL Home Earth Solar System Stars & Galaxies Technology
JPL Solar System Dynamics
BODIES ORBITS EPHEMERIDES TOOLS PHYSICAL DATA DISCOVERY FAQ SITE MAP
IMPORTANT: The SSD Announcement email list is now available. Major changes are coming in the near future, including possible hostname and/or URL changes. To be notified of such changes, subscribe to this email list.

Please visit this page for more details.


JPL Small-Body Database Browser
Search: [ help ]  
295764 (2008 UB160)
Classification: Main-belt Asteroid          SPK-ID: 2295764
Ephemeris | Orbit Diagram | Orbital Elements | Mission Design | Physical Parameters | Discovery Circumstances | Close-Approach Data ]

[ show orbit diagram ]
Orbital Elements at Epoch 2458600.5 (2019-Apr-27.0) TDB
Reference: JPL 16 (heliocentric ecliptic J2000)
 Element Value Uncertainty (1-sigma)   Units 
e .1693214427091005 7.9361e-08  
a 3.019608559931082 3.8614e-08 au
q 2.508324082146801 2.5576e-07 au
i 4.509459639842845 8.3517e-06 deg
node 41.36035209043421 8.5642e-05 deg
peri 6.511860275006499 8.8579e-05 deg
M 9.781319944400764 2.3686e-05 deg
tp 2458548.426188982244
(2019-Mar-05.92618898)
0.00012556 TDB
period 1916.568732333872
5.25
3.6763e-05
1.007e-07
d
yr
n .1878356846412785 3.603e-09 deg/d
Q 3.530893037715362 4.5152e-08 au
  Orbit Determination Parameters
   # obs. used (total)      225  
   data-arc span      6762 days (18.51 yr)  
   first obs. used      2000-04-13  
   last obs. used      2018-10-18  
   planetary ephem.      DE431  
   SB-pert. ephem.      SB431-N16  
   condition code      0  
   norm. resid. RMS      .60983  
   source      ORB  
   producer      Otto Matic  
   solution date      2018-Oct-31 04:34:01  

Additional Information
 Earth MOID = 1.51784 au 
 Jupiter MOID = 1.86385 au 
 T_jup = 3.220 
[ show covariance matrix ]

Ephemeris | Orbit Diagram | Orbital Elements | Mission Design | Physical Parameters | Discovery Circumstances | Close-Approach Data ]

Physical Parameter Table
Parameter Symbol Value Units Sigma Reference Notes
absolute magnitude H 16.1   n/a MPO455186  

295764 (2008 UB160)          Discovered 2008-Oct-23 by Spacewatch at Kitt Peak
Reference: 20110912/Numbers.arcLast Updated: 2011-09-14

[ show close-approach data ]
Alternate Designations
 2008 UB160 = 2003 XH42 
Ephemeris | Orbit Diagram | Orbital Elements | Mission Design | Physical Parameters | Discovery Circumstances | Close-Approach Data ]
ABOUT SSD CREDITS/AWARDS PRIVACY/COPYRIGHT GLOSSARY LINKS
FirstGov
(server date/time)  
NASA Home Page
Site Manager:   Ryan S. Park
Webmaster  Alan B. Chamberlin